Time,TemperatureF,DewpointF,PressureIn,WindDirection,WindDirectionDegrees,WindSpeedMPH,WindSpeedGustMPH,Humidity,HourlyPrecipIn,Conditions,Clouds,dailyrainin,SoftwareType,DateUTC
2013-07-19 00:12:00,80.0,74.0,-100.00,SW,215,0.0,1.0,81,0.00,,,-99.99,,2013-07-19 04:12:00,
2013-07-19 00:22:00,80.0,74.0,-100.00,WSW,250,0.0,2.0,81,0.00,,,-99.99,,2013-07-19 04:22:00,
2013-07-19 00:33:00,80.0,74.0,-100.00,SW,235,1.0,4.0,80,0.00,,,-99.99,,2013-07-19 04:33:00,
2013-07-19 00:44:00,82.0,74.0,-100.00,SSW,210,2.0,9.0,76,0.00,,,-99.99,,2013-07-19 04:44:00,
2013-07-19 01:02:00,81.0,74.0,-100.00,WSW,240,5.0,9.0,77,0.00,,,-99.99,,2013-07-19 05:02:00,
2013-07-19 01:11:00,81.0,74.0,-100.00,WSW,240,5.0,9.0,77,0.00,,,-99.99,,2013-07-19 05:11:00,
2013-07-19 01:22:00,81.0,73.0,-100.00,SW,235,5.0,9.0,78,0.00,,,-99.99,,2013-07-19 05:22:00,
2013-07-19 01:32:00,81.0,73.0,-100.00,SW,235,5.0,9.0,78,0.00,,,-99.99,,2013-07-19 05:32:00,
2013-07-19 01:53:00,80.0,73.0,-100.00,WSW,245,2.0,9.0,80,0.00,,,-99.99,,2013-07-19 05:53:00,
2013-07-19 02:01:00,80.0,73.0,-100.00,WSW,245,2.0,9.0,80,0.00,,,-99.99,,2013-07-19 06:01:00,
2013-07-19 02:11:00,80.0,73.0,-100.00,WSW,245,2.0,9.0,80,0.00,,,-99.99,,2013-07-19 06:11:00,
2013-07-19 02:22:00,78.0,73.0,-100.00,WSW,245,2.0,5.0,85,0.00,,,-99.99,,2013-07-19 06:22:00,
2013-07-19 02:33:00,78.0,73.0,-100.00,SSE,155,0.0,6.0,84,0.00,,,-99.99,,2013-07-19 06:33:00,
2013-07-19 02:43:00,77.0,73.0,-100.00,SW,235,0.0,6.0,85,0.00,,,-99.99,,2013-07-19 06:43:00,
2013-07-19 03:32:00,77.0,72.0,-100.00,North,350,0.0,3.0,87,0.00,,,-99.99,,2013-07-19 07:32:00,
2013-07-19 03:43:00,76.0,72.0,-100.00,South,175,0.0,4.0,87,0.00,,,-99.99,,2013-07-19 07:43:00,
2013-07-19 03:53:00,76.0,72.0,-100.00,ESE,105,0.0,3.0,87,0.00,,,-99.99,,2013-07-19 07:53:00,
2013-07-19 04:01:00,76.0,72.0,-100.00,East,100,1.0,3.0,87,0.00,,,-99.99,,2013-07-19 08:01:00,
2013-07-19 04:12:00,77.0,72.0,-100.00,WSW,250,3.0,7.0,86,0.00,,,-99.99,,2013-07-19 08:12:00,
2013-07-19 04:22:00,77.0,72.0,-100.00,South,190,1.0,6.0,85,0.00,,,-99.99,,2013-07-19 08:22:00,
2013-07-19 04:33:00,77.0,72.0,-100.00,WSW,245,1.0,6.0,85,0.00,,,-99.99,,2013-07-19 08:33:00,
2013-07-19 04:43:00,76.0,72.0,-100.00,SSW,200,2.0,6.0,86,0.00,,,-99.99,,2013-07-19 08:43:00,
2013-07-19 04:52:00,76.0,72.0,-100.00,South,190,4.0,7.0,87,0.00,,,-99.99,,2013-07-19 08:52:00,
2013-07-19 06:01:00,75.0,72.0,-100.00,South,175,0.0,4.0,90,0.00,,,-99.99,,2013-07-19 10:01:00,
2013-07-19 06:11:00,75.0,72.0,-100.00,South,175,0.0,4.0,90,0.00,,,-99.99,,2013-07-19 10:11:00,
2013-07-19 06:22:00,75.0,72.0,-100.00,South,170,1.0,6.0,88,0.00,,,-99.99,,2013-07-19 10:22:00,
2013-07-19 06:32:00,75.0,72.0,-100.00,South,190,1.0,5.0,88,0.00,,,-99.99,,2013-07-19 10:32:00,
2013-07-19 06:43:00,76.0,72.0,-100.00,South,185,1.0,6.0,87,0.00,,,-99.99,,2013-07-19 10:43:00,
2013-07-19 07:12:00,76.0,72.0,-100.00,South,170,2.0,7.0,87,0.00,,,-99.99,,2013-07-19 11:12:00,
2013-07-19 07:22:00,76.0,72.0,-100.00,South,185,1.0,4.0,87,0.00,,,-99.99,,2013-07-19 11:22:00,
2013-07-19 07:33:00,76.0,72.0,-100.00,South,180,3.0,7.0,85,0.00,,,-99.99,,2013-07-19 11:33:00,
2013-07-19 07:43:00,77.0,72.0,-100.00,SSE,160,4.0,7.0,84,0.00,,,-99.99,,2013-07-19 11:43:00,
2013-07-19 08:01:00,78.0,72.0,-100.00,SW,230,3.0,10.0,83,0.00,,,-99.99,,2013-07-19 12:01:00,
2013-07-19 08:43:00,79.0,73.0,-100.00,South,175,4.0,11.0,81,0.00,,,-99.99,,2013-07-19 12:43:00,
2013-07-19 09:02:00,80.0,73.0,-100.00,SSW,210,5.0,12.0,79,0.00,,,-99.99,,2013-07-19 13:02:00,
2013-07-19 09:12:00,80.0,73.0,-100.00,SSW,210,5.0,12.0,79,0.00,,,-99.99,,2013-07-19 13:12:00,
2013-07-19 10:02:00,83.0,74.0,-100.00,SW,235,4.0,14.0,74,0.00,,,-99.99,,2013-07-19 14:02:00,
2013-07-19 10:12:00,83.0,74.0,-100.00,SW,235,4.0,14.0,74,0.00,,,-99.99,,2013-07-19 14:12:00,
2013-07-19 10:22:00,83.0,74.0,-100.00,SW,235,4.0,14.0,74,0.00,,,-99.99,,2013-07-19 14:22:00,
2013-07-19 10:33:00,84.0,74.0,-100.00,WSW,240,6.0,15.0,70,0.00,,,-99.99,,2013-07-19 14:33:00,
2013-07-19 10:43:00,85.0,74.0,-100.00,SW,235,9.0,16.0,68,0.00,,,-99.99,,2013-07-19 14:43:00,
2013-07-19 11:02:00,85.0,74.0,-100.00,WSW,250,9.0,17.0,68,0.00,,,-99.99,,2013-07-19 15:02:00,
2013-07-19 11:43:00,87.0,74.0,-100.00,SW,225,9.0,19.0,65,0.00,,,-99.99,,2013-07-19 15:43:00,
2013-07-19 12:01:00,87.0,73.0,-100.00,WSW,245,12.0,21.0,64,0.00,,,-99.99,,2013-07-19 16:01:00,
2013-07-19 12:11:00,87.0,74.0,-100.00,SW,230,10.0,18.0,64,0.00,,,-99.99,,2013-07-19 16:11:00,
2013-07-19 12:22:00,87.0,73.0,-100.00,WSW,250,11.0,20.0,63,0.00,,,-99.99,,2013-07-19 16:22:00,
2013-07-19 12:32:00,88.0,74.0,-100.00,WSW,240,6.0,17.0,64,0.00,,,-99.99,,2013-07-19 16:32:00,
2013-07-19 12:43:00,87.0,73.0,-100.00,SW,235,10.0,21.0,62,0.00,,,-99.99,,2013-07-19 16:43:00,
2013-07-19 13:12:00,88.0,73.0,-100.00,SW,230,9.0,18.0,61,0.00,,,-99.99,,2013-07-19 17:12:00,
2013-07-19 13:22:00,88.0,73.0,-100.00,WSW,245,8.0,20.0,62,0.00,,,-99.99,,2013-07-19 17:22:00,
2013-07-19 13:32:00,89.0,73.0,-100.00,SW,230,9.0,17.0,60,0.00,,,-99.99,,2013-07-19 17:32:00,
2013-07-19 13:43:00,89.0,73.0,-100.00,SW,230,8.0,22.0,60,0.00,,,-99.99,,2013-07-19 17:43:00,
2013-07-19 14:01:00,89.0,73.0,-100.00,WSW,240,9.0,17.0,59,0.00,,,-99.99,,2013-07-19 18:01:00,
2013-07-19 14:11:00,90.0,73.0,-100.00,WSW,240,9.0,21.0,58,0.00,,,-99.99,,2013-07-19 18:11:00,
2013-07-19 14:22:00,90.0,73.0,-100.00,SW,230,9.0,20.0,57,0.00,,,-99.99,,2013-07-19 18:22:00,
2013-07-19 14:32:00,90.0,72.0,-100.00,WSW,245,9.0,21.0,56,0.00,,,-99.99,,2013-07-19 18:32:00,
2013-07-19 14:42:00,90.0,72.0,-100.00,WSW,240,10.0,24.0,55,0.00,,,-99.99,,2013-07-19 18:42:00,
2013-07-19 15:11:00,91.0,73.0,-100.00,SSW,200,7.0,21.0,55,0.00,,,-99.99,,2013-07-19 19:11:00,
2013-07-19 15:22:00,91.0,72.0,-100.00,SW,235,9.0,22.0,54,0.00,,,-99.99,,2013-07-19 19:22:00,
2013-07-19 15:32:00,91.0,72.0,-100.00,WSW,240,11.0,23.0,53,0.00,,,-99.99,,2013-07-19 19:32:00,
2013-07-19 15:43:00,91.0,72.0,-100.00,SW,235,7.0,21.0,54,0.00,,,-99.99,,2013-07-19 19:43:00,
2013-07-19 16:11:00,90.0,72.0,-100.00,SW,225,11.0,21.0,54,0.00,,,-99.99,,2013-07-19 20:11:00,
2013-07-19 16:43:00,91.0,71.0,-100.00,SW,235,9.0,19.0,52,0.55,,,-99.99,,2013-07-19 20:43:00,
2013-07-19 17:01:00,92.0,72.0,-100.00,SW,235,9.0,17.0,53,0.00,,,-99.99,,2013-07-19 21:01:00,
2013-07-19 18:01:00,91.0,71.0,-100.00,SW,235,9.0,21.0,52,0.00,,,-99.99,,2013-07-19 22:01:00,
2013-07-19 18:11:00,91.0,71.0,-100.00,SW,235,12.0,23.0,52,0.00,,,-99.99,,2013-07-19 22:11:00,
2013-07-19 18:21:00,91.0,72.0,-100.00,SW,235,9.0,21.0,53,0.00,,,-99.99,,2013-07-19 22:21:00,
2013-07-19 18:32:00,91.0,72.0,-100.00,SW,220,8.0,20.0,53,0.00,,,-99.99,,2013-07-19 22:32:00,
2013-07-19 18:43:00,91.0,72.0,-100.00,SSW,195,5.0,22.0,54,0.00,,,-99.99,,2013-07-19 22:43:00,
2013-07-19 19:01:00,90.0,71.0,-100.00,SW,235,11.0,19.0,53,0.00,,,-99.99,,2013-07-19 23:01:00,
2013-07-19 19:21:00,90.0,71.0,-100.00,WSW,240,7.0,20.0,53,0.00,,,-99.99,,2013-07-19 23:21:00,
2013-07-19 19:43:00,89.0,72.0,-100.00,SW,225,4.0,14.0,56,0.00,,,-99.99,,2013-07-19 23:43:00,
2013-07-19 19:52:00,89.0,71.0,-100.00,WSW,250,6.0,18.0,56,0.00,,,-99.99,,2013-07-19 23:52:00,
2013-07-19 20:01:00,89.0,71.0,-100.00,SSW,205,4.0,20.0,56,0.00,,,-99.99,,2013-07-20 00:01:00,
2013-07-19 20:11:00,89.0,72.0,-100.00,SW,225,4.0,12.0,57,0.00,,,-99.99,,2013-07-20 00:11:00,
2013-07-19 20:22:00,88.0,72.0,-100.00,SW,235,2.0,14.0,57,0.00,,,-99.99,,2013-07-20 00:22:00,
2013-07-19 20:32:00,87.0,72.0,-100.00,SSW,200,1.0,9.0,59,0.00,,,-99.99,,2013-07-20 00:32:00,
2013-07-19 20:43:00,87.0,72.0,-100.00,SSE,160,2.0,7.0,61,0.00,,,-99.99,,2013-07-20 00:43:00,
2013-07-19 20:52:00,87.0,72.0,-100.00,SSW,195,2.0,12.0,61,0.00,,,-99.99,,2013-07-20 00:52:00,
2013-07-19 21:01:00,86.0,72.0,-100.00,South,175,2.0,6.0,61,0.00,,,-99.99,,2013-07-20 01:01:00,
2013-07-19 21:11:00,86.0,72.0,-100.00,SSW,200,3.0,8.0,63,0.00,,,-99.99,,2013-07-20 01:11:00,
2013-07-19 21:22:00,85.0,72.0,-100.00,South,185,11.0,15.0,65,0.00,,,-99.99,,2013-07-20 01:22:00,
2013-07-19 21:32:00,85.0,73.0,-100.00,South,185,4.0,15.0,66,0.00,,,-99.99,,2013-07-20 01:32:00,
2013-07-19 21:52:00,84.0,73.0,-100.00,South,190,6.0,13.0,67,0.00,,,-99.99,,2013-07-20 01:52:00,
2013-07-19 22:02:00,85.0,73.0,-100.00,SW,220,4.0,14.0,67,0.00,,,-99.99,,2013-07-20 02:02:00,
2013-07-19 22:33:00,84.0,72.0,-100.00,SSW,200,6.0,12.0,67,0.00,,,-99.99,,2013-07-20 02:33:00,
2013-07-19 22:43:00,84.0,72.0,-100.00,South,180,4.0,16.0,67,0.00,,,-99.99,,2013-07-20 02:43:00,
2013-07-19 23:02:00,84.0,72.0,-100.00,SW,230,10.0,22.0,66,0.00,,,-99.99,,2013-07-20 03:02:00,
2013-07-19 23:44:00,80.0,69.0,-100.00,South,180,6.0,15.0,69,0.00,,,-99.99,,2013-07-20 03:44:00,